Home   Weather   Waterbury   Past weeks

Flag for USA Past Weather in Waterbury, Connecticut, USA — Yesterday and Last 2 Weeks

Now
90 °F

Scattered clouds.


Feels Like: 92 °F
Forecast: 67 / 91 °F
Wind: 5 mph from West

Location: Oxford

Current Time: Jul 20, 2017 at 3:02:55 pm

Latest Report: Jul 20, 2017 at 1:50 pm


Visibility: 10 mi

Pressure: 29.95 "Hg

Humidity: 46%

Dew Point: 66 °F

Location of WaterburyLocation

Past Weather in Waterbury — Graph

°F

Waterbury Temperature Yesterday

Maximum temperature yesterday: 88 °F (at 1:50 pm)
Minimum temperature yesterday: 64 °F (at 10:50 am)
Average temperature yesterday: 74 °F

High & Low Weather Summary for the Past Weeks

 TemperatureHumidityPressure
High90 °F (Jul 20, 1:50 pm)100% (Jul 19, 10:50 am)30.25 "Hg (Jul 19, 10:50 am)
Low57 °F (Jul 9, 4:55 am)36% (Jul 9, 5:50 pm)29.74 "Hg (Jul 7, 5:50 pm)
Average69 °F75%30.01 "Hg
* Reported Jul 5 1:50 pm — Jul 20 1:50 pm, Waterbury. Weather by CustomWeather, © 2017

Note: Actual official high and low records may vary slightly from our data, if they occured in-between our weather recording intervals... More about our weather records

Advertising

Waterbury Weather History for the Previous 24 Hours

Scroll right to see more
 ConditionsComfort  
Time TempWeatherWind HumidityBarometerVisibility
1:50 pm
Thu, Jul 20
90 °FScattered clouds.5 mph46%29.95 "Hg10 mi
12:50 pm88 °FScattered clouds.8 mph49%29.97 "Hg10 mi
11:50 am86 °FScattered clouds.6 mph55%30.00 "Hg10 mi
10:50 am82 °FPartly sunny.5 mph55%30.01 "Hg10 mi
9:50 am81 °FPartly sunny.No wind58%30.02 "Hg10 mi
8:50 am79 °FPartly sunny.No wind61%30.02 "Hg10 mi
7:50 am73 °FPartly sunny.No wind74%30.03 "Hg10 mi
6:50 am68 °FPartly sunny.No wind83%30.01 "Hg10 mi
5:55 am64 °FSunny.No wind83%29.99 "Hg10 mi
5:35 am64 °FSunny.No wind83%29.99 "Hg10 mi
5:15 am64 °FClear.No wind78%29.99 "Hg10 mi
4:55 am64 °FClear.No wind83%29.99 "Hg10 mi
4:35 am64 °FClear.No wind83%29.99 "Hg10 mi
4:15 am64 °FClear.No wind83%29.99 "Hg10 mi
3:55 am64 °FClear.No wind83%29.98 "Hg10 mi
3:35 am66 °FClear.No wind83%30.00 "Hg10 mi
2:55 am66 °FClear.No wind83%30.00 "Hg10 mi
2:35 am66 °FClear.No wind83%30.00 "Hg10 mi
1:55 am66 °FClear.No wind83%30.01 "Hg10 mi
1:35 am66 °FClear.No wind83%30.01 "Hg10 mi
1:15 am66 °FClear.No wind83%30.02 "Hg10 mi
12:55 am68 °FClear.No wind78%30.01 "Hg10 mi
12:35 am70 °FClear.No wind73%30.02 "Hg10 mi
12:15 am70 °FClear.3 mph73%30.03 "Hg10 mi
11:55 pm
Wed, Jul 19
70 °FClear.No wind73%30.02 "Hg10 mi
11:35 pm72 °FClear.No wind73%30.02 "Hg10 mi
11:15 pm72 °FClear.No wind69%30.01 "Hg10 mi
10:55 pm73 °FClear.No wind65%30.02 "Hg10 mi
10:35 pm73 °FClear.No wind69%30.02 "Hg10 mi
10:15 pm75 °FClear.5 mph61%30.03 "Hg10 mi
9:35 pm75 °FClear.No wind69%30.02 "Hg10 mi
8:50 pm79 °FClear.No wind61%30.01 "Hg10 mi
7:50 pm81 °FSunny.No wind58%30.00 "Hg10 mi
6:50 pm86 °FSunny.No wind46%30.00 "Hg10 mi
5:50 pm86 °FSunny.5 mph40%30.00 "Hg10 mi
4:50 pm88 °FSunny.7 mph40%30.00 "Hg10 mi
3:50 pm88 °FPassing clouds.8 mph38%30.02 "Hg10 mi
Weather by CustomWeather, © 2017

See weather overviewHow to use our weather pages